Terminal Aerodrome Forecast
Issued by NWS Austin/San Antonio, TX

Home | Current Version | Previous Version | Text Only | Print | Product List | Glossary On
Versions: 1 2 3 4 5 6 7 8 9 10 11 12 13 14 15
000
FTUS44 KEWX 260559
TAFAUS
TAF
KAUS 260559Z 2606/2712 18017KT P6SM OVC012
     FM260900 18012G22KT P6SM OVC007
     FM261400 23013G23KT P6SM SCT007 BKN018
     FM261500 26017G27KT P6SM FEW250
     FM261800 31020G30KT P6SM FEW250
     FM270300 35006KT P6SM SCT250=

USA.gov is the U.S. government's official web portal to all federal, state and local government web resources and services.